Location: Volkssternwarte_EN
(51.3230°N, 7.4010°E)
Time: 01:22:14
(UTC+02:00)

ISS - Pass Details

Date: 24 April 2024
Orbit: 410 x 414 km, 51.6° (Epoch: 19 May)

Event Time Altitude Azimuth Distance (km) Brightness Sun altitude
Exits shadow 05:25:38 - 209° (SSW) 1,631 -1.3 -7.8°
Reaches altitude 10° 05:26:05 10° 206° (SSW) 1,474 -1.5 -7.7°
Maximum altitude 05:28:53 26° 148° (SSE) 851 -2.2 -7.3°
Drops below altitude 10° 05:31:42 10° 89° (E) 1,478 0.1 -7.0°
Sets 05:34:07 0° 76° (ENE) 2,390 1.9 -6.6°
